Weather History for KVYS - February, 2011

Change the Weather History Date:

Tuesday, February 1, 2011

  Actual Average Record
Temperature  
Mean Temperature 22 °F -  
Max Temperature 24 °F 34 °F 70 °F (1989)
Min Temperature 21 °F 16 °F -9 °F (1979)
Degree Days  
Heating Degree Days 42    
Moisture  
Dew Point 20 °F    
Average Humidity 88    
Maximum Humidity 93    
Minimum Humidity 80    
Precipitation  
Precipitation 0.00 in - - ()
Sea Level Pressure  
Sea Level Pressure 30.07 in    
Wind  
Wind Speed 15 mph (NE)    
Max Wind Speed 36 mph    
Max Gust Speed 44 mph    
Visibility 5 miles    
Events Snow    
Averages and records for this station are not official NWS values.
T = Trace of Precipitation, MM = Missing Value Source: NWS Daily Summary

Daily Weather History Graph

Daily Weather History Graph

Search for Another Location

Airport or City:

Trip Planner

Search our weather history database for the weather conditions in past years. The results will help you decide how hot, cold, wet, or windy it might be!

Date:

Astronomy

Feb. 01, 2011 Rise Set
Actual Time 7:08 AM CST 5:12 PM CST
Civil Twilight 6:38 AM CST 5:41 PM CST
Nautical Twilight 6:05 AM CST 6:15 PM CST
Astronomical Twilight 5:33 AM CST 6:47 PM CST
Moon 6:06 AM CST (2/1) 4:06 PM CST (2/1)
Length of Visible Light 11h 03m
Length of Day
10h 04m
Waning Crescent, 2% of the Moon is Illuminated
Feb 1
Waning Crescent
Feb 2
New
Feb 11
First Quarter
Feb 18
Full
Feb 24
Last Quarter

Hourly Weather History & Observations

Time (CST) Temp. Windchill Dew Point Humidity Pressure Visibility Wind Dir Wind Speed Gust Speed Precip Events Conditions
12:05 AM 21.6 °F 10.6 °F 18.3 °F 87% 30.14 in 10.0 mi East 10.4 mph - N/A   Overcast
12:25 AM 21.6 °F 12.1 °F 18.3 °F 87% 30.15 in 7.0 mi ENE 8.1 mph - N/A   Overcast
12:45 AM 21.7 °F 13.2 °F 18.9 °F 89% 30.16 in 10.0 mi ENE 6.9 mph - N/A   Overcast
1:05 AM 21.7 °F 12.3 °F 18.9 °F 89% 30.15 in 10.0 mi ENE 8.1 mph - N/A   Overcast
1:25 AM 21.7 °F 10.8 °F 18.5 °F 87% 30.14 in 10.0 mi ENE 10.4 mph - N/A   Overcast
2:07 AM 21.2 °F 8.9 °F 19.4 °F 93% 30.13 in 7.0 mi ENE 12.7 mph - N/A   Overcast
2:25 AM 21.7 °F 10.8 °F 19.2 °F 90% 30.14 in 7.0 mi ENE 10.4 mph - N/A   Overcast
2:28 AM 21.2 °F 11.7 °F 19.4 °F 93% 30.15 in 7.0 mi ENE 8.1 mph - N/A   Overcast
2:45 AM 21.9 °F 12.5 °F 19.4 °F 90% 30.15 in 7.0 mi ENE 8.1 mph - N/A   Overcast
3:05 AM 23.0 °F 11.1 °F 19.4 °F 86% 30.15 in 5.0 mi ENE 12.7 mph 16.1 mph N/A   Overcast
3:25 AM 21.9 °F 11.0 °F 19.4 °F 90% 30.16 in 7.0 mi ENE 10.4 mph - N/A   Overcast
3:45 AM 21.9 °F 9.8 °F 19.2 °F 89% 30.16 in 10.0 mi ENE 12.7 mph 17.3 mph N/A   Overcast
4:05 AM 21.9 °F 11.0 °F 18.5 °F 87% 30.16 in 10.0 mi NE 10.4 mph - N/A   Overcast
4:25 AM 21.9 °F 11.7 °F 18.5 °F 87% 30.17 in 10.0 mi NE 9.2 mph - N/A   Overcast
4:45 AM 21.2 °F 8.9 °F 19.4 °F 93% 30.16 in 5.0 mi NE 12.7 mph - N/A   Overcast
5:05 AM 21.9 °F 11.0 °F 19.4 °F 90% 30.16 in 5.0 mi NE 10.4 mph - N/A   Overcast
5:25 AM 21.9 °F 9.8 °F 19.6 °F 91% 30.16 in 10.0 mi NE 12.7 mph - N/A   Overcast
5:45 AM 22.5 °F 8.9 °F 19.0 °F 87% 30.15 in 10.0 mi NE 16.1 mph - N/A   Overcast
6:05 AM 22.5 °F 8.9 °F 18.5 °F 85% 30.15 in 10.0 mi ENE 16.1 mph - N/A   Overcast
6:25 AM 22.5 °F 9.4 °F 18.5 °F 85% 30.16 in 10.0 mi ENE 15.0 mph 18.4 mph N/A   Overcast
6:45 AM 22.5 °F 9.9 °F 18.5 °F 85% 30.16 in 10.0 mi NE 13.8 mph - N/A   Overcast
7:05 AM 22.6 °F 10.7 °F 18.5 °F 84% 30.16 in 10.0 mi ENE 12.7 mph 19.6 mph N/A   Overcast
7:25 AM 22.6 °F 9.2 °F 18.5 °F 84% 30.16 in 10.0 mi NE 16.1 mph - N/A   Overcast
7:45 AM 22.8 °F 10.9 °F 18.5 °F 83% 30.18 in 10.0 mi NE 12.7 mph - N/A   Overcast
8:05 AM 22.8 °F 10.9 °F 18.5 °F 83% 30.18 in 10.0 mi ENE 12.7 mph - N/A   Overcast
8:25 AM 23.0 °F 9.2 °F 18.5 °F 83% 30.16 in 7.0 mi NE 17.3 mph - N/A   Overcast
8:45 AM 23.0 °F 8.7 °F 18.9 °F 84% 30.16 in 4.0 mi NE 18.4 mph 23.0 mph N/A   Overcast
9:05 AM 23.0 °F 9.6 °F 19.2 °F 85% 30.15 in 4.0 mi NE 16.1 mph - N/A   Overcast
9:25 AM 23.5 °F 9.9 °F 19.8 °F 85% 30.14 in 5.0 mi NE 17.3 mph - N/A   Overcast
9:45 AM 23.7 °F 8.9 °F 19.9 °F 85% 30.12 in 5.0 mi NE 20.7 mph 26.5 mph N/A   Overcast
10:05 AM 23.9 °F 9.1 °F 20.1 °F 85% 30.12 in 5.0 mi ENE 20.7 mph 26.5 mph N/A   Overcast
10:25 AM 24.8 °F 10.7 °F 19.4 °F 80% 30.10 in 7.0 mi ENE 19.6 mph 25.3 mph N/A   Overcast
10:45 AM 24.4 °F 11.0 °F 20.1 °F 84% 30.13 in 5.0 mi NE 17.3 mph 25.3 mph N/A   Overcast
11:05 AM 24.8 °F 10.3 °F 20.7 °F 84% 30.11 in 3.0 mi NE 20.7 mph 24.2 mph N/A Snow Light Snow
11:25 AM 24.8 °F 10.3 °F 20.8 °F 85% 30.11 in 4.0 mi NE 20.7 mph 27.6 mph N/A   Overcast
11:45 AM 24.8 °F 9.6 °F 20.8 °F 85% 30.11 in 5.0 mi NE 23.0 mph 28.8 mph N/A   Overcast
12:05 PM 24.8 °F 9.0 °F 20.8 °F 85% 30.08 in 5.0 mi NE 25.3 mph 29.9 mph N/A   Overcast
12:25 PM 24.8 °F 9.3 °F 20.7 °F 84% 30.07 in 5.0 mi NE 24.2 mph 31.1 mph N/A   Haze
12:45 PM 24.8 °F 9.0 °F 20.7 °F 84% 30.05 in 3.0 mi NE 25.3 mph 32.2 mph N/A   Haze
1:05 PM 24.4 °F 9.2 °F 20.8 °F 86% 30.03 in 1.0 mi NE 23.0 mph 35.7 mph N/A Snow Light Snow
1:25 PM 24.3 °F 8.6 °F 21.2 °F 88% 30.03 in 0.5 mi NE 24.2 mph 29.9 mph N/A Snow Snow
1:45 PM 23.9 °F 7.8 °F 21.2 °F 89% 30.00 in 0.5 mi NE 25.3 mph 34.5 mph N/A Snow Light Snow
2:05 PM 23.9 °F 6.9 °F 21.2 °F 89% 29.96 in 0.5 mi NE 28.8 mph 38.0 mph N/A Snow Snow
2:25 PM 23.9 °F 7.2 °F 21.2 °F 89% 29.96 in 0.5 mi NE 27.6 mph 36.8 mph N/A Snow Light Snow
2:45 PM 23.9 °F 7.5 °F 21.2 °F 89% 29.98 in 0.8 mi ENE 26.5 mph 34.5 mph N/A Snow Light Snow
3:05 PM 24.1 °F 8.7 °F 20.8 °F 87% 29.97 in 0.8 mi ENE 23.0 mph 32.2 mph N/A Snow Light Snow
3:25 PM 23.9 °F 8.4 °F 21.0 °F 89% 29.95 in 1.0 mi ENE 23.0 mph 31.1 mph N/A Snow Light Snow
3:45 PM 23.9 °F 8.4 °F 21.2 °F 89% 29.94 in 0.8 mi NE 23.0 mph - N/A Snow Light Snow
4:27 PM 23.0 °F 6.0 °F 21.2 °F 93% 29.89 in 0.5 mi NE 27.6 mph 33.4 mph N/A Snow Snow
4:46 PM 23.0 °F 4.9 °F 21.2 °F 93% 29.85 in 0.8 mi NE 32.2 mph 35.7 mph N/A Snow Light Snow
5:06 PM 23.0 °F 4.9 °F 21.2 °F 93% 29.83 in 0.5 mi NE 32.2 mph 40.3 mph N/A Snow Light Snow
5:26 PM 23.0 °F 4.6 °F 21.2 °F 93% 29.80 in 0.2 mi NE 33.4 mph 43.7 mph N/A Snow Snow
5:46 PM 23.0 °F 4.4 °F 21.2 °F 93% 29.78 in 0.8 mi NE 34.5 mph 43.7 mph N/A Snow Snow
6:05 PM 23.7 °F 5.1 °F 21.2 °F 90% 29.75 in 1.0 mi NE 35.7 mph 43.7 mph N/A Snow Light Snow
6:06 PM 23.0 °F 4.9 °F 21.2 °F 93% 29.75 in 1.0 mi ENE 32.2 mph 43.7 mph N/A Snow Light Snow
6:25 PM 23.7 °F 5.6 °F 21.0 °F 89% 29.72 in 0.8 mi NE 33.4 mph 50.6 mph N/A Snow Light Snow
6:45 PM 23.9 °F 6.1 °F 21.0 °F 89% 29.71 in 0.8 mi NE 32.2 mph 44.9 mph N/A Snow Snow
7:05 PM 23.9 °F 6.1 °F 21.0 °F 89% 29.69 in 1.5 mi NE 32.2 mph 41.4 mph N/A Snow Light Snow
7:25 PM 23.7 °F 5.1 °F 21.0 °F 89% 29.66 in 0.8 mi NE 35.7 mph 47.2 mph N/A Snow Snow
7:45 PM 23.7 °F 5.6 °F 21.2 °F 90% 29.67 in 0.5 mi NE 33.4 mph 52.9 mph N/A Snow Snow
8:05 PM 23.9 °F 5.1 °F 21.2 °F 89% 29.68 in 0.8 mi NE 36.8 mph 46.0 mph N/A Snow Snow
8:25 PM 23.7 °F 7.2 °F 21.2 °F 90% 29.69 in - NE 26.5 mph 43.7 mph N/A   Overcast
8:45 PM 23.9 °F 8.4 °F 21.2 °F 89% 29.72 in 0.8 mi NE 23.0 mph 35.7 mph 0.01 in Snow , Thunderstorm Thunderstorms and Snow
9:05 PM 23.7 °F 7.9 °F 21.2 °F 90% 29.76 in 0.5 mi NNE 24.2 mph 31.1 mph N/A Snow Snow
9:25 PM 23.5 °F 7.0 °F 21.2 °F 91% 29.77 in 0.5 mi NNE 26.5 mph 34.5 mph N/A Snow Heavy Snow
9:45 PM 23.4 °F 6.8 °F 21.0 °F 91% 29.75 in 0.5 mi NNE 26.5 mph 35.7 mph N/A Snow Heavy Snow
10:05 PM 23.0 °F 5.7 °F 20.7 °F 91% 29.72 in - NE 28.8 mph 44.9 mph N/A   Overcast
10:25 PM 22.8 °F 3.2 °F 20.3 °F 90% 29.69 in - NE 39.1 mph 47.2 mph N/A   Overcast
10:45 PM 22.8 °F 5.2 °F 20.3 °F 90% 29.68 in - NNE 29.9 mph 49.5 mph N/A   Overcast
11:05 PM 22.5 °F 4.7 °F 19.9 °F 90% 29.68 in - NNE 29.9 mph 42.6 mph N/A   Overcast
11:25 PM 22.5 °F 5.0 °F 19.9 °F 90% 29.69 in - NNE 28.8 mph 44.9 mph N/A   Overcast
11:45 PM 22.5 °F 4.7 °F 19.9 °F 90% 29.69 in - NNE 29.9 mph 40.3 mph N/A   Overcast